Location: Sundre
(51.7972°N, 114.6405°W)
Time: 13:47:42
(UTC-07:00)

TIGRISAT - Pass Details

Date: 28 January 2020
Orbit: 605 x 689 km, 97.7° (Epoch: 23 February)

Event Time Altitude Azimuth Distance (km) Brightness Sun altitude
Rises 07:26:51 0° 142° (SE) 2,907 ? -8.9°
Reaches altitude 10° 07:29:10 10° 134° (SE) 1,992 ? -8.6°
Maximum altitude 07:33:08 37° 67° (ENE) 965 ? -8.0°
Drops below altitude 10° 07:37:04 10° 0° (N) 1,974 ? -7.5°
Sets 07:39:21 0° 352° (N) 2,878 ? -7.1°
